Flag for Austria Weather for the Past 2 Weeks in Kirchdorf an der Krems, Upper Austria, Austria

Now
43 °F

Fog.


Feels Like: 40 °F
Forecast: 40 / 51 °F
Wind: 5 mph from West

Location: Kremsmuenster

Current Time: Feb 8, 2016 at 5:13:46 AM

Latest Report: Feb 8, 2016 at 3:00 AM


Visibility: N/A

Pressure: 29.99 "Hg

Humidity: 78%

Dew point: 36 °F

Location of Kirchdorf an der KremsLocation

Historic Weather in Kirchdorf an der Krems — Graph

°F

Kirchdorf an der Krems Temperature Yesterday

Maximum temperature yesterday: 46 °F (at 3:00 PM)
Minimum temperature yesterday: 29 °F (at 8:00 AM)
Average temperature yesterday: 38 °F

High & Low Weather Summary for the Past Weeks

 TemperatureHumidityPressure
High57 °F (Jan 28, 1:00 PM)98% (Jan 25, 10:00 PM)30.64 "Hg (Jan 25, 10:00 PM)
Low29 °F (Feb 7, 8:00 AM)46% (Jan 28, 1:00 PM)29.73 "Hg (Feb 7, 3:00 PM)
Average41 °F85%30.26 "Hg
* Reported Jan 24 4:00 AM — Feb 8 3:00 AM, Kirchdorf an der Krems, Weather by CustomWeather, © 2016

Note: Actual official high and low records may vary slightly from our data, if they occured in-between our weather recording intervals... More about our weather records

Advertising

Kirchdorf an der Krems Weather History for the Previous 24 Hours

 ConditionsComfort  
Time TempWeatherWind HumidityBarometerVisibility
3:00 AM
Mon, Feb 8
43 °FFog.5 mph78%29.99 "HgN/A
2:00 AM44 °FQuite cool.3 mph74%29.97 "HgN/A
1:00 AM44 °FQuite cool.5 mph73%29.97 "HgN/A
11:00 PM
Sun, Feb 7
44 °FQuite cool.6 mph75%29.92 "HgN/A
10:00 PM44 °FQuite cool.7 mph73%29.90 "HgN/A
9:00 PM40 °FQuite cool.6 mph84%29.87 "HgN/A
8:00 PM40 °FChilly.1 mph88%29.80 "HgN/A
7:00 PM41 °FOvercast.No wind86%29.78 "Hg19 mi
6:00 PM43 °FQuite cool.2 mph82%29.76 "HgN/A
5:00 PM44 °FQuite cool.2 mph80%29.75 "HgN/A
4:00 PM44 °FPartly sunny.2 mph80%29.73 "Hg25 mi
3:00 PM46 °FCool.5 mph75%29.73 "HgN/A
2:00 PM45 °FQuite cool.3 mph78%29.74 "HgN/A
1:00 PM41 °FQuite cool.2 mph85%29.78 "HgN/A
12:00 PM37 °FChilly.1 mph90%29.82 "HgN/A
11:00 AM34 °FChilly.2 mph92%29.85 "HgN/A
10:00 AM31 °FChilly.3 mph95%29.86 "HgN/A
9:00 AM29 °FChilly.1 mph95%29.88 "HgN/A
8:00 AM29 °FChilly.1 mph94%29.88 "HgN/A
7:00 AM29 °FFog.1 mph95%29.88 "Hg1 mi
6:00 AM29 °FChilly.1 mph95%29.87 "HgN/A
Weather by CustomWeather, © 2016

See weather overviewHow to use our weather pages